Year,Month,Day,Hour,Minute,Value (Times are PST for temperature in C)
2018,08,04,00,00,13.50
2018,08,04,00,01,13.50
2018,08,04,00,02,13.50
2018,08,04,00,03,13.40
2018,08,04,00,04,13.40
2018,08,04,00,05,13.40
2018,08,04,00,06,13.40
2018,08,04,00,07,13.40
2018,08,04,00,08,13.40
2018,08,04,00,09,13.40
2018,08,04,00,10,13.40
2018,08,04,00,11,13.30
2018,08,04,00,12,13.30
2018,08,04,00,13,13.30
2018,08,04,00,14,13.30
2018,08,04,00,15,13.30
2018,08,04,00,16,13.30
2018,08,04,00,17,13.30
2018,08,04,00,18,13.30
2018,08,04,00,19,13.30
2018,08,04,00,20,13.30
2018,08,04,00,21,13.30
2018,08,04,00,22,13.20
2018,08,04,00,23,13.20
2018,08,04,00,24,13.20
2018,08,04,00,25,13.20
2018,08,04,00,26,13.20
2018,08,04,00,27,13.20
2018,08,04,00,28,13.20
2018,08,04,00,29,13.20
2018,08,04,00,30,13.20
2018,08,04,00,31,13.10
2018,08,04,00,32,13.10
2018,08,04,00,33,13.10
2018,08,04,00,34,13.10
2018,08,04,00,35,13.10
2018,08,04,00,36,13.10
2018,08,04,00,37,13.10
2018,08,04,00,38,13.10
2018,08,04,00,39,13.10
2018,08,04,00,40,13.10
2018,08,04,00,41,13.10
2018,08,04,00,42,13.10
2018,08,04,00,43,13.10
2018,08,04,00,44,13.10
2018,08,04,00,45,13.10
2018,08,04,00,46,13.10
2018,08,04,00,47,13.10
2018,08,04,00,48,13.00
2018,08,04,00,49,13.00
2018,08,04,00,50,13.00
2018,08,04,00,51,13.00
2018,08,04,00,52,13.00
2018,08,04,00,53,13.00
2018,08,04,00,54,13.00
2018,08,04,00,55,13.00
2018,08,04,00,56,13.00
2018,08,04,00,57,13.00
2018,08,04,00,58,13.00
2018,08,04,00,59,13.00
2018,08,04,01,00,13.00
2018,08,04,01,01,12.90
2018,08,04,01,02,12.90
2018,08,04,01,03,12.90
2018,08,04,01,04,12.90
2018,08,04,01,05,12.90
2018,08,04,01,06,12.90
2018,08,04,01,07,12.90
2018,08,04,01,08,12.90
2018,08,04,01,09,12.90
2018,08,04,01,10,12.90
2018,08,04,01,11,12.90
2018,08,04,01,12,12.80
2018,08,04,01,13,12.80
2018,08,04,01,14,12.80
2018,08,04,01,15,12.80
2018,08,04,01,16,12.80
2018,08,04,01,17,12.80
2018,08,04,01,18,12.80
2018,08,04,01,19,12.80
2018,08,04,01,20,12.80
2018,08,04,01,21,12.80
2018,08,04,01,22,12.80
2018,08,04,01,23,12.80
2018,08,04,01,24,12.80
2018,08,04,01,25,12.80
2018,08,04,01,26,12.80
2018,08,04,01,27,12.80
2018,08,04,01,28,12.80
2018,08,04,01,29,12.80
2018,08,04,01,30,12.70
2018,08,04,01,31,12.70
2018,08,04,01,32,12.70
2018,08,04,01,33,12.70
2018,08,04,01,34,12.70
2018,08,04,01,35,12.70
2018,08,04,01,36,12.80
2018,08,04,01,37,12.80
2018,08,04,01,38,12.80
2018,08,04,01,39,12.80
2018,08,04,01,40,12.80
2018,08,04,01,41,12.80
2018,08,04,01,42,12.70
2018,08,04,01,43,12.70
2018,08,04,01,44,12.70
2018,08,04,01,45,12.70
2018,08,04,01,46,12.70
2018,08,04,01,47,12.70
2018,08,04,01,48,12.70
2018,08,04,01,49,12.60
2018,08,04,01,50,12.60
2018,08,04,01,51,12.60
2018,08,04,01,52,12.60
2018,08,04,01,53,12.60
2018,08,04,01,54,12.60
2018,08,04,01,55,12.60
2018,08,04,01,56,12.60
2018,08,04,01,57,12.50
2018,08,04,01,58,12.50
2018,08,04,01,59,12.50
2018,08,04,02,00,12.50
2018,08,04,02,01,12.40
2018,08,04,02,02,12.40
2018,08,04,02,03,12.40
2018,08,04,02,04,12.40
2018,08,04,02,05,12.40
2018,08,04,02,06,12.40
2018,08,04,02,07,12.40
2018,08,04,02,08,12.40
2018,08,04,02,09,12.40
2018,08,04,02,10,12.40
2018,08,04,02,11,12.40
2018,08,04,02,12,12.40
2018,08,04,02,13,12.40
2018,08,04,02,14,12.40
2018,08,04,02,15,12.30
2018,08,04,02,16,12.30
2018,08,04,02,17,12.30
2018,08,04,02,18,12.30
2018,08,04,02,19,12.30
2018,08,04,02,20,12.30
2018,08,04,02,21,12.30
2018,08,04,02,22,12.30
2018,08,04,02,23,12.30
2018,08,04,02,24,12.30
2018,08,04,02,25,12.30
2018,08,04,02,26,12.30
2018,08,04,02,27,12.30
2018,08,04,02,28,12.30
2018,08,04,02,29,12.30
2018,08,04,02,30,12.30
2018,08,04,02,31,12.30
2018,08,04,02,32,12.30
2018,08,04,02,33,12.30
2018,08,04,02,34,12.30
2018,08,04,02,35,12.30
2018,08,04,02,36,12.30
2018,08,04,02,37,12.30
2018,08,04,02,38,12.30
2018,08,04,02,39,12.30
2018,08,04,02,40,12.30
2018,08,04,02,41,12.30
2018,08,04,02,42,12.30
2018,08,04,02,43,12.30
2018,08,04,02,44,12.30
2018,08,04,02,45,12.30
2018,08,04,02,46,12.30
2018,08,04,02,47,12.30
2018,08,04,02,48,12.30
2018,08,04,02,49,12.30
2018,08,04,02,50,12.30
2018,08,04,02,51,12.30
2018,08,04,02,52,12.30
2018,08,04,02,53,12.30
2018,08,04,02,54,12.30
2018,08,04,02,55,12.30
2018,08,04,02,56,12.30
2018,08,04,02,57,12.30
2018,08,04,02,58,12.20
2018,08,04,02,59,12.20
2018,08,04,03,00,12.20
2018,08,04,03,01,12.20
2018,08,04,03,02,12.20
2018,08,04,03,06,12.20
2018,08,04,03,07,12.20
2018,08,04,03,08,12.20
2018,08,04,03,09,12.20
2018,08,04,03,10,12.20
2018,08,04,03,11,12.20
2018,08,04,03,12,12.20
2018,08,04,03,13,12.10
2018,08,04,03,14,12.10
2018,08,04,03,15,12.10
2018,08,04,03,16,12.10
2018,08,04,03,17,12.10
2018,08,04,03,18,12.10
2018,08,04,03,19,12.10
2018,08,04,03,20,12.10
2018,08,04,03,21,12.10
2018,08,04,03,22,12.10
2018,08,04,03,23,12.10
2018,08,04,03,24,12.10
2018,08,04,03,25,12.10
2018,08,04,03,26,12.10
2018,08,04,03,27,12.10
2018,08,04,03,28,12.10
2018,08,04,03,29,12.00
2018,08,04,03,30,12.00
2018,08,04,03,31,12.00
2018,08,04,03,32,12.00
2018,08,04,03,33,12.00
2018,08,04,03,34,11.90
2018,08,04,03,35,11.90
2018,08,04,03,36,11.90
2018,08,04,03,37,11.90
2018,08,04,03,38,11.90
2018,08,04,03,39,11.90
2018,08,04,03,40,11.90
2018,08,04,03,41,11.90
2018,08,04,03,42,11.90
2018,08,04,03,43,11.90
2018,08,04,03,44,11.90
2018,08,04,03,45,11.90
2018,08,04,03,46,11.90
2018,08,04,03,47,11.90
2018,08,04,03,48,11.90
2018,08,04,03,49,11.90
2018,08,04,03,50,11.90
2018,08,04,03,51,11.90
2018,08,04,03,52,11.90
2018,08,04,03,53,11.90
2018,08,04,03,54,11.90
2018,08,04,03,55,11.90
2018,08,04,03,56,11.90
2018,08,04,03,57,11.90
2018,08,04,03,58,11.90
2018,08,04,03,59,11.90
2018,08,04,04,00,11.90
2018,08,04,04,01,11.90
2018,08,04,04,02,12.00
2018,08,04,04,03,12.00
2018,08,04,04,04,12.00
2018,08,04,04,05,12.00
2018,08,04,04,06,12.00
2018,08,04,04,07,12.00
2018,08,04,04,08,12.00
2018,08,04,04,09,12.00
2018,08,04,04,10,12.00
2018,08,04,04,11,12.00
2018,08,04,04,12,12.00
2018,08,04,04,13,12.00
2018,08,04,04,14,12.00
2018,08,04,04,15,12.00
2018,08,04,04,16,12.00
2018,08,04,04,17,12.00
2018,08,04,04,18,12.00
2018,08,04,04,19,12.00
2018,08,04,04,20,12.00
2018,08,04,04,21,12.00
2018,08,04,04,22,12.00
2018,08,04,04,23,12.00
2018,08,04,04,24,12.00
2018,08,04,04,25,11.90
2018,08,04,04,26,11.90
2018,08,04,04,27,11.90
2018,08,04,04,28,11.90
2018,08,04,04,29,11.90
2018,08,04,04,30,11.90
2018,08,04,04,31,11.90
2018,08,04,04,32,11.90
2018,08,04,04,33,11.90
2018,08,04,04,34,11.90
2018,08,04,04,35,11.90
2018,08,04,04,36,11.90
2018,08,04,04,37,11.90
2018,08,04,04,38,11.90
2018,08,04,04,39,11.90
2018,08,04,04,40,11.90
2018,08,04,04,41,11.90
2018,08,04,04,42,11.90
2018,08,04,04,43,11.90
2018,08,04,04,44,11.90
2018,08,04,04,45,11.90
2018,08,04,04,46,11.90
2018,08,04,04,47,11.90
2018,08,04,04,48,11.90
2018,08,04,04,49,11.90
2018,08,04,04,50,11.80
2018,08,04,04,51,11.80
2018,08,04,04,52,11.80
2018,08,04,04,53,11.80
2018,08,04,04,54,11.80
2018,08,04,04,55,11.80
2018,08,04,04,56,11.80
2018,08,04,04,57,11.80
2018,08,04,04,58,11.70
2018,08,04,04,59,11.80
2018,08,04,05,00,11.70
2018,08,04,05,01,11.70
2018,08,04,05,02,11.70
2018,08,04,05,03,11.70
2018,08,04,05,04,11.70
2018,08,04,05,05,11.70
2018,08,04,05,06,11.70
2018,08,04,05,07,11.70
2018,08,04,05,08,11.80
2018,08,04,05,09,11.80
2018,08,04,05,10,11.80
2018,08,04,05,11,11.70
2018,08,04,05,12,11.70
2018,08,04,05,13,11.70
2018,08,04,05,14,11.70
2018,08,04,05,15,11.70
2018,08,04,05,16,11.70
2018,08,04,05,17,11.70
2018,08,04,05,18,11.70
2018,08,04,05,19,11.70
2018,08,04,05,20,11.70
2018,08,04,05,21,11.70
2018,08,04,05,22,11.70
2018,08,04,05,23,11.70
2018,08,04,05,24,11.70
2018,08,04,05,25,11.70
2018,08,04,05,26,11.70
2018,08,04,05,27,11.70
2018,08,04,05,28,11.70
2018,08,04,05,29,11.70
2018,08,04,05,30,11.70
2018,08,04,05,31,11.80
2018,08,04,05,32,11.80
2018,08,04,05,33,11.80
2018,08,04,05,34,11.80
2018,08,04,05,35,11.80
2018,08,04,05,36,11.80
2018,08,04,05,37,11.80
2018,08,04,05,38,11.80
2018,08,04,05,39,11.80
2018,08,04,05,40,11.80
2018,08,04,05,41,11.80
2018,08,04,05,42,11.80
2018,08,04,05,43,11.80
2018,08,04,05,44,11.80
2018,08,04,05,45,11.80
2018,08,04,05,46,11.80
2018,08,04,05,47,11.80
2018,08,04,05,48,11.80
2018,08,04,05,49,11.80
2018,08,04,05,50,11.80
2018,08,04,05,51,11.80
2018,08,04,05,52,11.80
2018,08,04,05,53,11.80
2018,08,04,05,54,11.80
2018,08,04,05,55,11.70
2018,08,04,05,56,11.70
2018,08,04,05,57,11.70
2018,08,04,05,58,11.70
2018,08,04,05,59,11.70
2018,08,04,06,00,11.60
2018,08,04,06,01,11.60
2018,08,04,06,02,11.60
2018,08,04,06,03,11.60
2018,08,04,06,04,11.60
2018,08,04,06,05,11.60
2018,08,04,06,06,11.60
2018,08,04,06,07,11.60
2018,08,04,06,08,11.60
2018,08,04,06,09,11.60
2018,08,04,06,10,11.60
2018,08,04,06,11,11.60
2018,08,04,06,12,11.60
2018,08,04,06,13,11.60
2018,08,04,06,14,11.60
2018,08,04,06,15,11.60
2018,08,04,06,16,11.60
2018,08,04,06,17,11.60
2018,08,04,06,18,11.70
2018,08,04,06,19,11.70
2018,08,04,06,20,11.70
2018,08,04,06,21,11.70
2018,08,04,06,22,11.70
2018,08,04,06,23,11.70
2018,08,04,06,24,11.80
2018,08,04,06,25,11.80
2018,08,04,06,26,11.80
2018,08,04,06,27,11.80
2018,08,04,06,28,11.80
2018,08,04,06,29,11.80
2018,08,04,06,30,11.90
2018,08,04,06,31,11.90
2018,08,04,06,32,11.90
2018,08,04,06,33,11.90
2018,08,04,06,34,11.90
2018,08,04,06,35,11.90
2018,08,04,06,36,11.90
2018,08,04,06,37,11.90
2018,08,04,06,38,11.90
2018,08,04,06,39,12.00
2018,08,04,06,40,12.00
2018,08,04,06,41,12.00
2018,08,04,06,42,12.00
2018,08,04,06,43,12.00
2018,08,04,06,44,12.00
2018,08,04,06,45,12.10
2018,08,04,06,46,12.10
2018,08,04,06,47,12.10
2018,08,04,06,48,12.20
2018,08,04,06,49,12.20
2018,08,04,06,50,12.20
2018,08,04,06,51,12.20
2018,08,04,06,52,12.30
2018,08,04,06,53,12.30
2018,08,04,06,54,12.40
2018,08,04,06,55,12.50
2018,08,04,06,56,12.50
2018,08,04,06,57,12.60
2018,08,04,06,58,12.60
2018,08,04,06,59,12.70
2018,08,04,07,00,12.70
2018,08,04,07,01,12.70
2018,08,04,07,02,12.80
2018,08,04,07,03,12.80
2018,08,04,07,04,12.80
2018,08,04,07,05,12.80
2018,08,04,07,06,12.80
2018,08,04,07,07,12.80
2018,08,04,07,08,12.90
2018,08,04,07,09,12.90
2018,08,04,07,10,13.00
2018,08,04,07,11,13.00
2018,08,04,07,12,13.10
2018,08,04,07,13,13.10
2018,08,04,07,14,13.10
2018,08,04,07,15,13.10
2018,08,04,07,16,13.10
2018,08,04,07,17,13.10
2018,08,04,07,18,13.10
2018,08,04,07,19,13.10
2018,08,04,07,20,13.10
2018,08,04,07,21,13.10
2018,08,04,07,22,13.20
2018,08,04,07,23,13.20
2018,08,04,07,24,13.20
2018,08,04,07,25,13.20
2018,08,04,07,26,13.20
2018,08,04,07,27,13.20
2018,08,04,07,28,13.20
2018,08,04,07,29,13.20
2018,08,04,07,30,13.20
2018,08,04,07,31,13.20
2018,08,04,07,32,13.20
2018,08,04,07,33,13.30
2018,08,04,07,34,13.30
2018,08,04,07,35,13.30
2018,08,04,07,36,13.30
2018,08,04,07,37,13.30
2018,08,04,07,38,13.30
2018,08,04,07,39,13.30
2018,08,04,07,40,13.30
2018,08,04,07,41,13.30
2018,08,04,07,42,13.40
2018,08,04,07,43,13.40
2018,08,04,07,44,13.50
2018,08,04,07,45,13.60
2018,08,04,07,46,13.70
2018,08,04,07,47,13.80
2018,08,04,07,48,13.90
2018,08,04,07,49,14.10
2018,08,04,07,50,14.20
2018,08,04,07,51,14.30
2018,08,04,07,52,14.40
2018,08,04,07,53,14.50
2018,08,04,07,54,14.70
2018,08,04,07,55,14.80
2018,08,04,07,56,14.90
2018,08,04,07,57,15.10
2018,08,04,07,58,15.20
2018,08,04,07,59,15.40
2018,08,04,08,00,15.50
2018,08,04,08,01,15.70
2018,08,04,08,02,15.90
2018,08,04,08,03,16.00
2018,08,04,08,04,16.10
2018,08,04,08,05,16.30
2018,08,04,08,06,16.40
2018,08,04,08,07,16.50
2018,08,04,08,08,16.50
2018,08,04,08,09,16.50
2018,08,04,08,10,16.50
2018,08,04,08,11,16.60
2018,08,04,08,12,16.70
2018,08,04,08,13,16.80
2018,08,04,08,14,16.80
2018,08,04,08,15,17.00
2018,08,04,08,16,17.10
2018,08,04,08,17,17.20
2018,08,04,08,18,17.30
2018,08,04,08,19,17.30
2018,08,04,08,20,17.40
2018,08,04,08,21,17.30
2018,08,04,08,22,17.20
2018,08,04,08,23,17.10
2018,08,04,08,24,17.10
2018,08,04,08,25,17.10
2018,08,04,08,26,17.10
2018,08,04,08,27,17.10
2018,08,04,08,28,17.00
2018,08,04,08,29,17.00
2018,08,04,08,30,16.80
2018,08,04,08,31,16.70
2018,08,04,08,32,16.60
2018,08,04,08,33,16.50
2018,08,04,08,34,16.50
2018,08,04,08,35,16.50
2018,08,04,08,36,16.40
2018,08,04,08,37,16.40
2018,08,04,08,38,16.40
2018,08,04,08,39,16.40
2018,08,04,08,40,16.40
2018,08,04,08,41,16.50
2018,08,04,08,42,16.60
2018,08,04,08,43,16.70
2018,08,04,08,44,16.80
2018,08,04,08,45,16.80
2018,08,04,08,46,16.80
2018,08,04,08,47,16.80
2018,08,04,08,48,16.90
2018,08,04,08,49,17.00
2018,08,04,08,50,17.10
2018,08,04,08,51,17.10
2018,08,04,08,52,17.20
2018,08,04,08,53,17.40
2018,08,04,08,54,17.50
2018,08,04,08,55,17.60
2018,08,04,08,56,17.60
2018,08,04,08,57,17.70
2018,08,04,08,58,17.70
2018,08,04,08,59,17.80
2018,08,04,09,00,17.80
2018,08,04,09,01,17.90
2018,08,04,09,02,18.00
2018,08,04,09,03,18.20
2018,08,04,09,04,18.30
2018,08,04,09,05,18.40
2018,08,04,09,06,18.50
2018,08,04,09,07,18.60
2018,08,04,09,08,18.60
2018,08,04,09,09,18.60
2018,08,04,09,10,18.60
2018,08,04,09,11,18.60
2018,08,04,09,12,18.50
2018,08,04,09,13,18.50
2018,08,04,09,14,18.50
2018,08,04,09,15,18.50
2018,08,04,09,16,18.50
2018,08,04,09,17,18.60
2018,08,04,09,18,18.60
2018,08,04,09,19,18.50
2018,08,04,09,20,18.50
2018,08,04,09,21,18.50
2018,08,04,09,22,18.50
2018,08,04,09,23,18.60
2018,08,04,09,24,18.60
2018,08,04,09,25,18.60
2018,08,04,09,26,18.70
2018,08,04,09,27,18.80
2018,08,04,09,28,18.80
2018,08,04,09,29,18.80
2018,08,04,09,30,18.80
2018,08,04,09,31,18.90
2018,08,04,09,32,18.90
2018,08,04,09,33,18.90
2018,08,04,09,34,18.80
2018,08,04,09,35,18.80
2018,08,04,09,36,18.80
2018,08,04,09,37,18.80
2018,08,04,09,38,18.70
2018,08,04,09,39,18.70
2018,08,04,09,40,18.70
2018,08,04,09,41,18.80
2018,08,04,09,42,18.90
2018,08,04,09,43,19.00
2018,08,04,09,44,19.00
2018,08,04,09,45,19.10
2018,08,04,09,46,19.10
2018,08,04,09,47,19.20
2018,08,04,09,48,19.20
2018,08,04,09,49,19.30
2018,08,04,09,50,19.30
2018,08,04,09,51,19.30
2018,08,04,09,52,19.30
2018,08,04,09,53,19.40
2018,08,04,09,54,19.40
2018,08,04,09,55,19.40
2018,08,04,09,56,19.50
2018,08,04,09,57,19.60
2018,08,04,09,58,19.70
2018,08,04,09,59,19.80
2018,08,04,10,00,19.90
2018,08,04,10,01,20.00
2018,08,04,10,02,20.10
2018,08,04,10,03,20.00
2018,08,04,10,04,19.90
2018,08,04,10,05,19.80
2018,08,04,10,06,19.80
2018,08,04,10,07,19.80
2018,08,04,10,08,19.80
2018,08,04,10,09,19.80
2018,08,04,10,10,19.90
2018,08,04,10,11,20.00
2018,08,04,10,12,20.00
2018,08,04,10,13,20.00
2018,08,04,10,14,20.00
2018,08,04,10,15,20.10
2018,08,04,10,16,20.10
2018,08,04,10,17,20.10
2018,08,04,10,18,20.10
2018,08,04,10,19,20.00
2018,08,04,10,20,20.00
2018,08,04,10,21,20.10
2018,08,04,10,22,20.10
2018,08,04,10,23,20.20
2018,08,04,10,24,20.30
2018,08,04,10,25,20.40
2018,08,04,10,26,20.60
2018,08,04,10,27,20.70
2018,08,04,10,28,20.80
2018,08,04,10,29,20.90
2018,08,04,10,30,21.00
2018,08,04,10,31,21.00
2018,08,04,10,32,21.00
2018,08,04,10,33,20.90
2018,08,04,10,34,20.70
2018,08,04,10,35,20.60
2018,08,04,10,36,20.50
2018,08,04,10,37,20.60
2018,08,04,10,38,20.60
2018,08,04,10,39,20.70
2018,08,04,10,40,20.80
2018,08,04,10,41,20.80
2018,08,04,10,42,20.80
2018,08,04,10,43,20.80
2018,08,04,10,44,20.80
2018,08,04,10,45,20.90
2018,08,04,10,46,21.00
2018,08,04,10,47,21.10
2018,08,04,10,48,21.10
2018,08,04,10,49,21.00
2018,08,04,10,50,21.00
2018,08,04,10,51,20.90
2018,08,04,10,52,20.90
2018,08,04,10,53,20.90
2018,08,04,10,54,20.80
2018,08,04,10,55,20.70
2018,08,04,10,56,20.60
2018,08,04,10,57,20.50
2018,08,04,10,58,20.40
2018,08,04,10,59,20.30
2018,08,04,11,00,20.30
2018,08,04,11,01,20.30
2018,08,04,11,02,20.30
2018,08,04,11,03,20.40
2018,08,04,11,04,20.50
2018,08,04,11,05,20.50
2018,08,04,11,06,20.60
2018,08,04,11,07,20.70
2018,08,04,11,08,20.80
2018,08,04,11,09,20.70
2018,08,04,11,10,20.70
2018,08,04,11,11,20.70
2018,08,04,11,12,20.60
2018,08,04,11,13,20.50
2018,08,04,11,14,20.40
2018,08,04,11,15,20.40
2018,08,04,11,16,20.40
2018,08,04,11,17,20.40
2018,08,04,11,18,20.40
2018,08,04,11,19,20.40
2018,08,04,11,20,20.40
2018,08,04,11,21,20.40
2018,08,04,11,22,20.40
2018,08,04,11,23,20.40
2018,08,04,11,24,20.30
2018,08,04,11,25,20.30
2018,08,04,11,26,20.30
2018,08,04,11,27,20.40
2018,08,04,11,28,20.40
2018,08,04,11,29,20.40
2018,08,04,11,30,20.30
2018,08,04,11,31,20.30
2018,08,04,11,32,20.30
2018,08,04,11,33,20.30
2018,08,04,11,34,20.20
2018,08,04,11,35,20.20
2018,08,04,11,36,20.10
2018,08,04,11,37,20.10
2018,08,04,11,38,20.10
2018,08,04,11,39,20.10
2018,08,04,11,40,20.10
2018,08,04,11,41,20.20
2018,08,04,11,42,20.30
2018,08,04,11,43,20.40
2018,08,04,11,44,20.60
2018,08,04,11,45,20.70
2018,08,04,11,46,20.80
2018,08,04,11,47,20.80
2018,08,04,11,48,20.80
2018,08,04,11,49,20.80
2018,08,04,11,50,20.80
2018,08,04,11,51,20.80
2018,08,04,11,52,20.80
2018,08,04,11,53,20.90
2018,08,04,11,54,20.90
2018,08,04,11,55,20.90
2018,08,04,11,56,20.90
2018,08,04,11,57,20.70
2018,08,04,11,58,20.60
2018,08,04,11,59,20.40
2018,08,04,12,00,20.30
2018,08,04,12,01,20.20
2018,08,04,12,02,20.20
2018,08,04,12,03,20.20
2018,08,04,12,04,20.20
2018,08,04,12,05,20.20
2018,08,04,12,06,20.30
2018,08,04,12,07,20.40
2018,08,04,12,08,20.40
2018,08,04,12,09,20.40
2018,08,04,12,10,20.40
2018,08,04,12,11,20.40
2018,08,04,12,12,20.50
2018,08,04,12,13,20.60
2018,08,04,12,14,20.80
2018,08,04,12,15,20.90
2018,08,04,12,16,21.00
2018,08,04,12,17,21.10
2018,08,04,12,18,21.20
2018,08,04,12,19,21.20
2018,08,04,12,20,21.20
2018,08,04,12,21,21.20
2018,08,04,12,22,21.20
2018,08,04,12,23,21.20
2018,08,04,12,24,21.10
2018,08,04,12,25,21.00
2018,08,04,12,26,20.90
2018,08,04,12,27,20.90
2018,08,04,12,28,20.90
2018,08,04,12,29,21.00
2018,08,04,12,30,21.00
2018,08,04,12,31,20.90
2018,08,04,12,32,20.90
2018,08,04,12,33,20.80
2018,08,04,12,34,20.80
2018,08,04,12,35,20.90
2018,08,04,12,36,21.00
2018,08,04,12,37,21.10
2018,08,04,12,38,21.20
2018,08,04,12,39,21.20
2018,08,04,12,40,21.10
2018,08,04,12,41,21.10
2018,08,04,12,42,21.00
2018,08,04,12,43,21.00
2018,08,04,12,44,21.00
2018,08,04,12,45,21.10
2018,08,04,12,46,21.10
2018,08,04,12,47,21.10
2018,08,04,12,48,21.10
2018,08,04,12,49,21.10
2018,08,04,12,50,21.20
2018,08,04,12,51,21.20
2018,08,04,12,52,21.30
2018,08,04,12,53,21.30
2018,08,04,12,54,21.30
2018,08,04,12,55,21.40
2018,08,04,12,56,21.40
2018,08,04,12,57,21.50
2018,08,04,12,58,21.60
2018,08,04,12,59,21.80
2018,08,04,13,00,21.80
2018,08,04,13,01,21.90
2018,08,04,13,02,21.90
2018,08,04,13,03,21.90
2018,08,04,13,04,21.90
2018,08,04,13,05,21.90
2018,08,04,13,06,21.90
2018,08,04,13,07,22.00
2018,08,04,13,08,22.10
2018,08,04,13,09,22.10
2018,08,04,13,10,22.00
2018,08,04,13,11,21.90
2018,08,04,13,12,21.90
2018,08,04,13,13,21.90
2018,08,04,13,14,22.00
2018,08,04,13,15,21.90
2018,08,04,13,16,21.90
2018,08,04,13,17,21.80
2018,08,04,13,18,21.80
2018,08,04,13,19,21.80
2018,08,04,13,20,21.90
2018,08,04,13,21,21.90
2018,08,04,13,22,21.90
2018,08,04,13,23,21.90
2018,08,04,13,24,21.80
2018,08,04,13,25,21.90
2018,08,04,13,26,21.90
2018,08,04,13,27,21.90
2018,08,04,13,28,21.80
2018,08,04,13,29,21.80
2018,08,04,13,30,21.90
2018,08,04,13,31,22.00
2018,08,04,13,32,22.10
2018,08,04,13,33,22.10
2018,08,04,13,34,22.20
2018,08,04,13,35,22.10
2018,08,04,13,36,22.10
2018,08,04,13,37,22.10
2018,08,04,13,38,22.10
2018,08,04,13,39,22.20
2018,08,04,13,40,22.20
2018,08,04,13,41,22.30
2018,08,04,13,42,22.30
2018,08,04,13,43,22.40
2018,08,04,13,44,22.50
2018,08,04,13,45,22.50
2018,08,04,13,46,22.40
2018,08,04,13,47,22.30
2018,08,04,13,48,22.20
2018,08,04,13,49,22.20
2018,08,04,13,50,22.20
2018,08,04,13,51,22.20
2018,08,04,13,52,22.10
2018,08,04,13,53,22.10
2018,08,04,13,54,22.00
2018,08,04,13,55,22.00
2018,08,04,13,56,21.90
2018,08,04,13,57,21.90
2018,08,04,13,58,21.90
2018,08,04,13,59,21.90
2018,08,04,14,00,21.90
2018,08,04,14,01,22.00
2018,08,04,14,02,22.10
2018,08,04,14,03,22.20
2018,08,04,14,04,22.30
2018,08,04,14,05,22.40
2018,08,04,14,06,22.40
2018,08,04,14,07,22.40
2018,08,04,14,08,22.40
2018,08,04,14,09,22.30
2018,08,04,14,10,22.20
2018,08,04,14,11,22.20
2018,08,04,14,12,22.10
2018,08,04,14,13,22.10
2018,08,04,14,14,22.20
2018,08,04,14,15,22.30
2018,08,04,14,16,22.40
2018,08,04,14,17,22.50
2018,08,04,14,18,22.60
2018,08,04,14,19,22.70
2018,08,04,14,20,22.80
2018,08,04,14,21,22.80
2018,08,04,14,22,22.80
2018,08,04,14,23,22.80
2018,08,04,14,24,22.80
2018,08,04,14,25,22.80
2018,08,04,14,26,22.80
2018,08,04,14,27,22.70
2018,08,04,14,28,22.60
2018,08,04,14,29,22.70
2018,08,04,14,30,22.70
2018,08,04,14,31,22.80
2018,08,04,14,32,22.90
2018,08,04,14,33,23.00
2018,08,04,14,34,23.00
2018,08,04,14,35,22.90
2018,08,04,14,36,22.90
2018,08,04,14,37,22.80
2018,08,04,14,38,22.80
2018,08,04,14,39,22.80
2018,08,04,14,40,22.80
2018,08,04,14,41,22.80
2018,08,04,14,42,22.80
2018,08,04,14,43,22.90
2018,08,04,14,44,23.00
2018,08,04,14,45,23.10
2018,08,04,14,46,23.10
2018,08,04,14,47,23.10
2018,08,04,14,48,23.10
2018,08,04,14,49,23.10
2018,08,04,14,50,23.10
2018,08,04,14,51,23.10
2018,08,04,14,52,23.10
2018,08,04,14,53,23.00
2018,08,04,14,54,22.90
2018,08,04,14,55,23.00
2018,08,04,14,56,23.10
2018,08,04,14,57,23.10
2018,08,04,14,58,23.10
2018,08,04,14,59,23.00
2018,08,04,15,00,22.90
2018,08,04,15,01,22.80
2018,08,04,15,02,22.80
2018,08,04,15,03,22.80
2018,08,04,15,04,22.80
2018,08,04,15,05,22.80
2018,08,04,15,06,22.80
2018,08,04,15,07,22.80
2018,08,04,15,08,22.80
2018,08,04,15,09,22.80
2018,08,04,15,10,22.80
2018,08,04,15,11,22.70
2018,08,04,15,12,22.70
2018,08,04,15,13,22.80
2018,08,04,15,14,22.70
2018,08,04,15,15,22.70
2018,08,04,15,16,22.70
2018,08,04,15,17,22.60
2018,08,04,15,18,22.60
2018,08,04,15,19,22.50
2018,08,04,15,20,22.50
2018,08,04,15,21,22.60
2018,08,04,15,22,22.60
2018,08,04,15,23,22.60
2018,08,04,15,24,22.70
2018,08,04,15,25,22.70
2018,08,04,15,26,22.70
2018,08,04,15,27,22.70
2018,08,04,15,28,22.70
2018,08,04,15,29,22.70
2018,08,04,15,30,22.70
2018,08,04,15,31,22.70
2018,08,04,15,32,22.80
2018,08,04,15,33,22.80
2018,08,04,15,34,22.90
2018,08,04,15,35,22.90
2018,08,04,15,36,23.00
2018,08,04,15,37,23.10
2018,08,04,15,38,23.20
2018,08,04,15,39,23.20
2018,08,04,15,40,23.20
2018,08,04,15,41,23.10
2018,08,04,15,42,23.00
2018,08,04,15,43,22.90
2018,08,04,15,44,22.90
2018,08,04,15,45,22.80
2018,08,04,15,46,22.80
2018,08,04,15,47,22.80
2018,08,04,15,48,22.80
2018,08,04,15,49,22.80
2018,08,04,15,50,22.80
2018,08,04,15,51,22.90
2018,08,04,15,52,22.90
2018,08,04,15,53,23.00
2018,08,04,15,54,23.10
2018,08,04,15,55,23.20
2018,08,04,15,56,23.30
2018,08,04,15,57,23.40
2018,08,04,15,58,23.50
2018,08,04,15,59,23.50
2018,08,04,16,00,23.40
2018,08,04,16,01,23.40
2018,08,04,16,02,23.40
2018,08,04,16,03,23.30
2018,08,04,16,04,23.30
2018,08,04,16,05,23.20
2018,08,04,16,06,23.20
2018,08,04,16,07,23.20
2018,08,04,16,08,23.20
2018,08,04,16,09,23.20
2018,08,04,16,10,23.10
2018,08,04,16,11,23.10
2018,08,04,16,12,23.00
2018,08,04,16,13,23.00
2018,08,04,16,14,22.90
2018,08,04,16,15,22.80
2018,08,04,16,16,22.80
2018,08,04,16,17,22.70
2018,08,04,16,18,22.70
2018,08,04,16,19,22.70
2018,08,04,16,20,22.70
2018,08,04,16,21,22.80
2018,08,04,16,22,22.80
2018,08,04,16,23,22.90
2018,08,04,16,24,22.90
2018,08,04,16,25,23.00
2018,08,04,16,26,22.90
2018,08,04,16,27,22.90
2018,08,04,16,28,22.90
2018,08,04,16,29,22.80
2018,08,04,16,30,22.70
2018,08,04,16,31,22.60
2018,08,04,16,32,22.60
2018,08,04,16,33,22.60
2018,08,04,16,34,22.50
2018,08,04,16,35,22.50
2018,08,04,16,36,22.50
2018,08,04,16,37,22.50
2018,08,04,16,38,22.50
2018,08,04,16,39,22.60
2018,08,04,16,40,22.60
2018,08,04,16,41,22.60
2018,08,04,16,42,22.60
2018,08,04,16,43,22.70
2018,08,04,16,44,22.70
2018,08,04,16,45,22.70
2018,08,04,16,46,22.60
2018,08,04,16,47,22.70
2018,08,04,16,48,22.70
2018,08,04,16,49,22.70
2018,08,04,16,50,22.80
2018,08,04,16,51,22.70
2018,08,04,16,52,22.70
2018,08,04,16,53,22.70
2018,08,04,16,54,22.70
2018,08,04,16,55,22.70
2018,08,04,16,56,22.70
2018,08,04,16,57,22.70
2018,08,04,16,58,22.70
2018,08,04,16,59,22.70
2018,08,04,17,00,22.70
2018,08,04,17,01,22.70
2018,08,04,17,02,22.70
2018,08,04,17,03,22.70
2018,08,04,17,04,22.70
2018,08,04,17,05,22.70
2018,08,04,17,06,22.70
2018,08,04,17,07,22.70
2018,08,04,17,08,22.70
2018,08,04,17,09,22.70
2018,08,04,17,10,22.60
2018,08,04,17,11,22.50
2018,08,04,17,12,22.50
2018,08,04,17,13,22.40
2018,08,04,17,14,22.40
2018,08,04,17,15,22.30
2018,08,04,17,16,22.30
2018,08,04,17,17,22.40
2018,08,04,17,18,22.40
2018,08,04,17,19,22.40
2018,08,04,17,20,22.50
2018,08,04,17,21,22.50
2018,08,04,17,22,22.50